Leader, Saskatchewan

5:46 PM CST on August 23, 2017 (GMT -0600)
Leader

Weather History for CWJX - September, 2014

Change the Weather History Date:

Tuesday, September 30, 2014

  Actual Average Record
Temperature  
Mean Temperature 47 °F -  
Max Temperature 55 °F - - ()
Min Temperature 39 °F - - ()
Degree Days  
Heating Degree Days 18    
Moisture  
Dew Point 44 °F    
Average Humidity 82    
Maximum Humidity 94    
Minimum Humidity 68    
Precipitation  
Precipitation 0.00 in - - ()
Sea Level Pressure  
Sea Level Pressure 29.61 in    
Wind  
Wind Speed 9 mph ()    
Max Wind Speed 20 mph    
Max Gust Speed 28 mph    
T = Trace of Precipitation, MM = Missing Value Source: Averaged Metar Reports

Daily Weather History Graph

Daily Weather History Graph

Search for Another Location

Airport or City:

Trip Planner

Search our weather history database for the weather conditions in past years. The results will help you decide how hot, cold, wet, or windy it might be!

Date:

Astronomy

Sep. 30, 2014 Rise Set
Actual Time 7:16 AM CST 6:57 PM CST
Civil Twilight 6:44 AM CST 7:30 PM CST
Nautical Twilight 6:05 AM CST 8:08 PM CST
Astronomical Twilight 5:26 AM CST 8:48 PM CST
Moon 1:57 PM CST (9/30) 11:02 PM CST (9/30)
Length of Visible Light 12h 46m
Length of Day
11h 40m
Waxing Crescent, 38% of the Moon is Illuminated
Sep 30
Waxing Crescent
Oct 1
First Quarter
Oct 8
Full
Oct 15
Last Quarter
Oct 23
New

Hourly Weather History & Observations

Time (CST) Temp. Windchill Dew Point Humidity Pressure Visibility Wind Dir Wind Speed Gust Speed Precip Events Conditions
12:00 AM 45 °F - 42 °F 83% 29.62 in - SE 10.4 mph - -  
12:00 AM 45.0 °F 39.7 °F 41.5 °F 88% 29.62 in - SE 10.4 mph - N/A   Unknown
1:00 AM 46.4 °F 41.5 °F 43.0 °F 88% 29.61 in - SE 10.4 mph - N/A   Unknown
2:00 AM 47.5 °F - 44.2 °F 89% 29.60 in - SSE 10.4 mph - N/A   Unknown
3:00 AM 48.0 °F - 44.8 °F 89% 29.56 in - SSE 10.4 mph - N/A   Unknown
4:00 AM 46.9 °F - 44.2 °F 90% 29.55 in - SSE 8.1 mph - N/A   Unknown
5:00 AM 44.8 °F 41.6 °F 42.4 °F 91% 29.56 in - SE 5.8 mph - N/A   Unknown
6:00 AM 44 °F - 42 °F 89% 29.55 in - SE 6.9 mph - -  
6:00 AM 43.7 °F 39.7 °F 41.9 °F 93% 29.55 in - SE 6.9 mph - N/A   Unknown
7:00 AM 43.2 °F 41.5 °F 41.2 °F 93% 29.55 in - SSE 3.5 mph - N/A   Unknown
8:00 AM 39.9 °F - 37.8 °F 92% 29.55 in - North 1.2 mph - N/A   Unknown
9:00 AM 43.2 °F - 41.5 °F 94% 29.55 in - East 1.2 mph - N/A   Unknown
10:00 AM 50.7 °F - 47.5 °F 89% 29.55 in - West 6.9 mph - N/A   Unknown
11:00 AM 53.1 °F - 45.5 °F 75% 29.57 in - WNW 11.5 mph - N/A   Unknown
12:00 PM 55 °F - 48 °F 70% 29.59 in - NNW 15.0 mph - -  
12:00 PM 55.0 °F - 48.0 °F 77% 29.59 in - NNW 15.0 mph - N/A   Unknown
1:00 PM 55.8 °F - 47.7 °F 74% 29.60 in - NNW 15.0 mph - N/A   Unknown
4:00 PM 55.9 °F - 46.4 °F 70% 29.63 in - NNW 19.6 mph 25.3 mph N/A   Unknown
5:00 PM 53.4 °F - 45.5 °F 75% 29.66 in - NW 18.4 mph 25.3 mph N/A   Unknown
6:00 PM 53 °F - 46 °F 71% 29.68 in - NW 16.1 mph - -  
7:00 PM 53.4 °F - 45.1 °F 74% 29.69 in - NW 12.7 mph 20.7 mph N/A   Unknown
8:00 PM 52.3 °F - 41.9 °F 68% 29.73 in - SSE 18.4 mph 27.6 mph N/A   Unknown
9:00 PM 50.5 °F - 41.9 °F 72% 29.72 in - NW 10.4 mph 17.3 mph N/A   Unknown
10:00 PM 51.3 °F - 42.3 °F 71% 29.72 in - NW 12.7 mph - N/A   Unknown
11:00 PM 46.8 °F - 42.4 °F 85% 29.65 in - SE 10.4 mph - N/A   Unknown